Location: Newark
(25.6108°S, 54.5803°W)
Time: 21:43:37
(UTC+00:00)

Courier 1B - Pass Details

Date: 27 October 2020
Orbit: 962 x 1209 km, 28.3° (Epoch: 24 November)

Event Time Altitude Azimuth Distance (km) Brightness Sun altitude
Rises 23:11:25 0° 334° (NNW) 3,850 10.6 -17.7°
Reaches altitude 10° 23:15:03 10° 351° (N) 2,947 9.8 -18.5°
Enters shadow 23:18:39 18° 21° (NNE) 2,450 9.2 -19.2°
Maximum altitude 23:19:50 19° 33° (NNE) 2,426 - -19.4°
Drops below altitude 10° 23:24:47 10° 74° (ENE) 3,072 - -20.4°
Sets 23:28:39 0° 91° (E) 4,073 - -21.2°
